Gage, OK

4:13 AM CST on November 19, 2017 (GMT -0600)
Gage

Weather History for KGAG - April, 2014

Change the Weather History Date:

Wednesday, April 30, 2014

  Actual Average Record
Temperature  
Mean Temperature 48 °F -  
Max Temperature 62 °F 72 °F 93 °F (2002)
Min Temperature 37 °F 48 °F 29 °F (1950)
Degree Days  
Heating Degree Days 16    
Moisture  
Dew Point 23 °F    
Average Humidity 42    
Maximum Humidity 76    
Minimum Humidity 19    
Precipitation  
Precipitation 0.00 in - - ()
Sea Level Pressure  
Sea Level Pressure 30.15 in    
Wind  
Wind Speed 15 mph (NNW)    
Max Wind Speed 26 mph    
Max Gust Speed 39 mph    
Visibility 10 miles    
Events      
Averages and records for this station are not official NWS values.
T = Trace of Precipitation, MM = Missing Value Source: NWS Daily Summary

Daily Weather History Graph

Daily Weather History Graph

Search for Another Location

Airport or City:

Trip Planner

Search our weather history database for the weather conditions in past years. The results will help you decide how hot, cold, wet, or windy it might be!

Date:

Astronomy

Apr. 30, 2014 Rise Set
Actual Time 6:47 AM CDT 8:26 PM CDT
Civil Twilight 6:19 AM CDT 8:53 PM CDT
Nautical Twilight 5:46 AM CDT 9:26 PM CDT
Astronomical Twilight 5:11 AM CDT 10:02 PM CDT
Moon 7:50 AM CDT (4/30) 10:05 PM CDT (4/30)
Length of Visible Light 14h 34m
Length of Day
13h 38m
New Moon, 2% of the Moon is Illuminated
Apr 30
New Moon
May 6
First Quarter
May 14
Full
May 21
Last Quarter
May 28
New

Hourly Weather History & Observations

Time (CDT) Temp. Windchill Dew Point Humidity Pressure Visibility Wind Dir Wind Speed Gust Speed Precip Events Conditions
12:53 AM 43.0 °F 35.7 °F 30.9 °F 62% 30.09 in 10.0 mi North 15.0 mph 26.5 mph N/A   Overcast
1:53 AM 43.0 °F 36.4 °F 30.0 °F 60% 30.12 in 10.0 mi NNW 12.7 mph - N/A   Overcast
2:53 AM 42.1 °F 36.6 °F 30.9 °F 65% 30.12 in 10.0 mi NNW 9.2 mph 21.9 mph N/A   Mostly Cloudy
3:53 AM 39.9 °F 33.9 °F 30.9 °F 70% 30.14 in 10.0 mi WNW 9.2 mph - N/A   Overcast
4:53 AM 37.9 °F 30.5 °F 30.9 °F 76% 30.15 in 10.0 mi WNW 11.5 mph - N/A   Clear
5:53 AM 37.9 °F 31.5 °F 30.0 °F 73% 30.16 in 10.0 mi NW 9.2 mph - N/A   Clear
6:53 AM 37.0 °F 30.4 °F 28.9 °F 73% 30.18 in 10.0 mi NW 9.2 mph - N/A   Clear
7:53 AM 39.9 °F 32.1 °F 30.0 °F 68% 30.20 in 10.0 mi NW 13.8 mph - N/A   Clear
8:53 AM 44.1 °F 35.4 °F 28.0 °F 53% 30.21 in 10.0 mi NNW 21.9 mph 27.6 mph N/A   Clear
9:53 AM 48.2 °F - 26.6 °F 43% 30.20 in 10.0 mi NNW 19.6 mph 27.6 mph N/A   Clear
10:53 AM 52.0 °F - 19.9 °F 28% 30.19 in 10.0 mi North 24.2 mph 35.7 mph N/A   Scattered Clouds
11:53 AM 54.0 °F - 19.9 °F 26% 30.19 in 10.0 mi NNW 26.5 mph 39.1 mph N/A   Scattered Clouds
12:53 PM 55.9 °F - 19.9 °F 25% 30.18 in 10.0 mi NNW 16.1 mph 26.5 mph N/A   Scattered Clouds
1:53 PM 57.9 °F - 18.0 °F 21% 30.15 in 10.0 mi North 25.3 mph 34.5 mph N/A   Clear
2:53 PM 59.0 °F - 19.4 °F 22% 30.15 in 10.0 mi North 17.3 mph 26.5 mph N/A   Mostly Cloudy
3:53 PM 60.1 °F - 19.9 °F 21% 30.12 in 10.0 mi WNW 21.9 mph 31.1 mph N/A   Partly Cloudy
4:53 PM 60.1 °F - 19.9 °F 21% 30.10 in 10.0 mi NNW 21.9 mph 31.1 mph N/A   Clear
5:53 PM 60.1 °F - 19.0 °F 20% 30.10 in 10.0 mi NNW 23.0 mph 29.9 mph N/A   Clear
6:53 PM 60.1 °F - 17.1 °F 19% 30.10 in 10.0 mi NW 17.3 mph 24.2 mph N/A   Clear
7:53 PM 57.0 °F - 17.1 °F 21% 30.10 in 10.0 mi NNW 15.0 mph - N/A   Clear
8:53 PM 52.0 °F - 18.0 °F 26% 30.11 in 10.0 mi North 9.2 mph - N/A   Clear
9:53 PM 46.0 °F 42.5 °F 18.0 °F 33% 30.12 in 10.0 mi North 6.9 mph - N/A   Clear
10:53 PM 39.9 °F 35.8 °F 19.0 °F 43% 30.15 in 10.0 mi West 5.8 mph - N/A   Clear
11:53 PM 39.9 °F 37.8 °F 19.0 °F 43% 30.17 in 10.0 mi West 3.5 mph - N/A   Clear